Location: Sternwarte ZA, Rosenfeld-Brittheim
(48.2889°N, 8.6789°E)
Time: 03:28:13
(UTC+02:00)

ISS - Pass Details

Date: 09 July 2020
Orbit: 417 x 421 km, 51.6° (Epoch: 08 July)

Event Time Altitude Azimuth Distance (km) Brightness Sun altitude
Exits shadow 04:11:13 - 279° (W) 2,369 -0.2 -10.8°
Rises 04:11:14 0° 279° (W) 2,362 -0.2 -10.8°
Reaches altitude 10° 04:13:23 10° 286° (WNW) 1,498 -1.2 -10.6°
Maximum altitude 04:16:38 45° 0° (N) 584 -2.6 -10.2°
Drops below altitude 10° 04:19:53 10° 75° (ENE) 1,498 -0.1 -9.9°
Sets 04:22:02 0° 82° (E) 2,362 0.9 -9.7°
